Вернуться в каталог

CZ-6A DEB

АктивенPO
NORAD 61356·DEBRIS·🇨🇳 China

Запущен Aug 6, 2024 с Taiyuan Satellite Launch Center

Loading…

Ближайшие Пролёты (ближайшие 24 часа)

TLE

СвежийSource: Space-Track

Эпоха: Sep 14, 2026, 06:28 UTC

1 61356U 24140VV  26257.26973768  .00001187  00000-0  47562-3 0  9996
2 61356  88.9663 260.9670 0034088 279.5036  80.2306 14.27417529105678

Отслеживайте CZ-6A DEB в реальном времени с AllMySat

Download on the App Store